Wilmington, DE

1:36 AM EST on January 24, 2018 (GMT -0500)
New Castle County

Weather History for KILG - April, 2013

Change the Weather History Date:

Thursday, April 11, 2013

  Actual Average Record
Temperature  
Mean Temperature 65 °F 52 °F  
Max Temperature 79 °F 62 °F 84 °F (1922)
Min Temperature 50 °F 42 °F 26 °F (1921)
Degree Days  
Heating Degree Days 0 13  
Month to date heating degree days 143 165  
Since 1 July heating degree days 4298 4471  
Cooling Degree Days 0 0  
Month to date cooling degree days 16 0  
Year to date cooling degree days 16 1  
Growing Degree Days 15 (Base 50)    
Moisture  
Dew Point 56 °F    
Average Humidity 71    
Maximum Humidity 93    
Minimum Humidity 48    
Precipitation  
Precipitation T in 0.12 in 0.75 in (2003)
Month to date precipitation 0.19 1.37  
Year to date precipitation 8.74 10.98  
Snow  
Snow 0.00 in 0.00 in 3.00 in (1921)
Month to date snowfall 0.0 0.2  
Since 1 July snowfall 5.5 20.1  
Snow Depth 0.00 in    
Sea Level Pressure  
Sea Level Pressure 29.89 in    
Wind  
Wind Speed 9 mph (East)    
Max Wind Speed 22 mph    
Max Gust Speed 28 mph    
Visibility 10 miles    
Events Rain , Thunderstorm    
T = Trace of Precipitation, MM = Missing Value Source: NWS Daily Summary

Daily Weather History Graph

Daily Weather History Graph

Search for Another Location

Airport or City:

Trip Planner

Search our weather history database for the weather conditions in past years. The results will help you decide how hot, cold, wet, or windy it might be!

Date:

Astronomy

Apr. 11, 2013 Rise Set
Actual Time 6:30 AM EDT 7:36 PM EDT
Civil Twilight 6:03 AM EDT 8:04 PM EDT
Nautical Twilight 5:30 AM EDT 8:37 PM EDT
Astronomical Twilight 4:55 AM EDT 9:12 PM EDT
Moon 7:01 AM EDT (4/11) 9:08 PM EDT (4/11)
Length of Visible Light 14h 01m
Length of Day
13h 06m
New Moon, 2% of the Moon is Illuminated
Apr 11
New Moon
Apr 18
First Quarter
Apr 25
Full
May 2
Last Quarter
May 9
New

Hourly Weather History & Observations

Time (EDT) Temp. Dew Point Humidity Pressure Visibility Wind Dir Wind Speed Gust Speed Precip Events Conditions
12:06 AM 64.4 °F 60.8 °F 88% 29.90 in 10.0 mi East 3.5 mph - 0.00 in Rain Light Rain
12:17 AM 64.4 °F 60.8 °F 88% 29.88 in 10.0 mi NE 6.9 mph - 0.00 in Thunderstorm Scattered Clouds
12:32 AM 64.4 °F 60.8 °F 88% 29.88 in 10.0 mi NE 5.8 mph - 0.00 in   Partly Cloudy
12:51 AM 64.0 °F 60.1 °F 87% 29.89 in 10.0 mi NE 4.6 mph - 0.00 in   Partly Cloudy
1:51 AM 62.1 °F 60.1 °F 93% 29.88 in 10.0 mi Calm Calm - 0.00 in   Clear
2:51 AM 62.1 °F 60.1 °F 93% 29.83 in 10.0 mi South 5.8 mph - N/A   Clear
3:51 AM 62.1 °F 59.0 °F 90% 29.83 in 10.0 mi South 8.1 mph - N/A   Clear
4:51 AM 62.1 °F 57.9 °F 86% 29.86 in 10.0 mi SSW 5.8 mph - N/A   Clear
5:51 AM 59.0 °F 57.0 °F 93% 29.88 in 10.0 mi East 3.5 mph - N/A   Clear
6:51 AM 57.9 °F 55.9 °F 93% 29.89 in 8.0 mi Calm Calm - N/A   Clear
7:51 AM 61.0 °F 57.0 °F 87% 29.91 in 10.0 mi Calm Calm - N/A   Clear
8:51 AM 64.0 °F 59.0 °F 84% 29.89 in 10.0 mi SE 3.5 mph - N/A   Clear
9:51 AM 68.0 °F 59.0 °F 73% 29.88 in 10.0 mi Calm Calm - N/A   Clear
10:51 AM 73.9 °F 57.9 °F 57% 29.90 in 10.0 mi Calm Calm - N/A   Clear
11:51 AM 73.9 °F 57.9 °F 57% 29.90 in 10.0 mi SE 6.9 mph - N/A   Clear
12:51 PM 75.9 °F 59.0 °F 56% 29.88 in 10.0 mi South 8.1 mph - N/A   Clear
1:51 PM 78.1 °F 57.9 °F 50% 29.86 in 10.0 mi ESE 4.6 mph - N/A   Clear
2:51 PM 73.9 °F 61.0 °F 64% 29.85 in 8.0 mi ENE 16.1 mph 23.0 mph N/A   Clear
3:51 PM 66.0 °F 59.0 °F 78% 29.85 in 8.0 mi ENE 18.4 mph - N/A   Clear
4:51 PM 70.0 °F 55.9 °F 61% 29.87 in 10.0 mi East 18.4 mph 24.2 mph N/A   Clear
5:51 PM 63.0 °F 52.0 °F 67% 29.89 in 10.0 mi East 17.3 mph 25.3 mph N/A   Clear
6:31 PM 57.2 °F 50.0 °F 77% 29.91 in 10.0 mi East 18.4 mph 24.2 mph N/A   Mostly Cloudy
6:51 PM 55.9 °F 48.9 °F 77% 29.92 in 10.0 mi East 15.0 mph - N/A   Overcast
7:32 PM 55.4 °F 46.4 °F 72% 29.92 in 10.0 mi East 12.7 mph - N/A   Scattered Clouds
7:51 PM 55.0 °F 46.9 °F 74% 29.91 in 10.0 mi East 13.8 mph 20.7 mph N/A   Clear
8:36 PM 53.6 °F 46.4 °F 77% 29.91 in 10.0 mi East 16.1 mph 20.7 mph N/A   Mostly Cloudy
8:51 PM - - N/A% 29.91 in 10.0 mi East 11.5 mph - N/A   Overcast
9:06 PM - - N/A% 29.92 in 10.0 mi East 12.7 mph - N/A   Overcast
9:51 PM 54.0 °F 48.0 °F 80% 29.92 in 10.0 mi ENE 16.1 mph - N/A   Overcast
10:51 PM 52.0 °F 48.0 °F 86% 29.92 in 10.0 mi East 15.0 mph 25.3 mph N/A   Overcast
11:51 PM 51.1 °F 46.9 °F 86% 29.91 in 10.0 mi ENE 17.3 mph 20.7 mph N/A   Overcast